Location: Harburg
(48.7667°N, 10.6667°E)
Time: 03:51:43
(UTC+00:00)

Cosmos 2278 Rocket - Pass Details

Date: 18 September 2020
Orbit: 841 x 845 km, 71.0° (Epoch: 29 October)

Event Time Altitude Azimuth Distance (km) Brightness Sun altitude
Exits shadow 21:22:06 23° 27° (NNE) 1,719 4.0 -34.5°
Drops below altitude 10° 21:24:08 10° 28° (NNE) 2,470 4.9 -34.7°
Sets 21:26:35 0° 29° (NNE) 3,409 5.7 -34.9°
